Weather in Arkhangel'skaya

Russia / Krasnodar Krai     45°40′29″N   40°16′54″E
temp.,
°C
wind,
m/s
gust,
m/s
humid.,
%
clouds,
%
prec.,
mm/h
press.,
hPa
HPBL,
m
26 october, tue
tue2600:00+4nne347174 0.0 103271
03:00+3ene366218 0.0 1033158
06:00+2ene36660 0.0 1033162
09:00+4ene45560 0.0 1034337
12:00+7ene44440 0.0 1033832
15:00+8ene44380 0.0 1031939
18:00+6ene37500 0.0 1032161
21:00+4ene49550 0.0 1031228
27 october, wed
wed2700:00+3e410610 0.0 1031229
03:00+2e410633 0.0 1030221
06:00+2e511665 0.0 1029233
09:00+5e59604 0.0 1028307
12:00+10e56470 0.0 1026596
15:00+12e45400 0.0 1025763
18:00+9ene34530 0.0 102461
21:00+7e22610 0.0 102416
28 october, thu
thu2800:00+6wnw11650 0.0 102410
03:00+5nw22660 0.0 102410
06:00+4nw2266100 0.0 102411
09:00+7wnw2356100 0.0 1026160
12:00+10w3442100 0.0 1025545
15:00+11w3437100 0.0 1024649
18:00+9wsw2443100 0.0 102470
21:00+8wsw355228 0.0 1024110
29 october, fri
fri2900:00+7wsw386452 0.0 1024174
03:00+6wsw497788 0.0 1023200
06:00+7wsw51175100 0.0 1023280
09:00+8wsw4117419 0.1 1024343
12:00+10w477789 0.0 1025410
15:00+14nw356332 0.1 10251137
18:00+12ne5973100 0.1 1027342
21:00+11ne48715 0.1 1029557
30 october, sat
sat3000:00+8ene49700 0.0 1030271
03:00+6ene48750 0.0 1032228
06:00+5ene511760 0.0 1033313
09:00+6e711680 0.0 1034530
12:00+9e79490 0.0 1034841
15:00+11e79430 0.0 1033932
18:00+8e611530 0.0 1034531
21:00+6e613630 0.0 1034463